OBJECT F, 59778

Orbit data source: Space-Track

You're viewing an Uncataloged Satellite

Recently launched and/or uncataloged satellites may have evolving metadata. Metadata may include but not limited to: Owner, Maufacturer, Bus, Motor, and Mission.

OBJECT F, 59778 is a satellite owned by Sitronics (CIS) in SSO that was launched on Thu, 16 May 2024 UTC via a SOYUZ-2-1B launch vehicle from the Plesetsk Missile And Space Complex (PKMTR). Unknown objects in Earth's orbit typically refer to objects detected orbiting the Earth but have not yet been identified or cataloged. These objects could be anything from previously untracked satellites, spent rocket stages, debris from satellite collisions, or even natural meteoroids temporarily captured by Earth's gravity.

Loading next visibility...
OBJECT F details
Identifier
59778, 2024-092F
Orbit
SSO
Last TLE update13 hours ago
Origin
Flag of CISSitronics (CIS)
ManufacturerSputniks
MissionOperational spacecraft
Bus & MotorCUBESAT 3U?, Unknown motor
Mass3 kg wet, 3 kg dry
Launch date (UTC)
2024-05-16 (7 months ago)
Launch vehicle
SOYUZ-2-1B
Launch site
Plesetsk Missile And Space Complex (PKMTR)
Object typeUnknown
Shape & HBRUnknown
Radar Cross SectionSmall (<0.1 m²)

Expand to show TLE details & history

TLE from 13 hours ago
0 OBJECT F
1 59778U 24092F   24356.08335996  .00017032  00000-0  89673-3 0  9995
2 59778  97.6096 106.9536 0011083 252.4046 107.5976 15.15641212 32920
Epoch: 2024-12-21T02:00Z
Definitive object data (Epoch: 2024-12-21T02:00:02.3Z)
Latitude-0.00002°
Longitude-13.19559°
Altitude524.43 km
Speed7.6 km/s
True Right ascension07h 07m 48s
True Declination0° 00' 00"
Sunlit
Object was in full shadow at TLE epoch
Visualization TLE readout
Latitude67.72848°
Longitude-31.58435°
Altitude538.349 km
Speed7.595 km/s
Apparent Right ascension03h 19m 25s
Apparent Declination19° 05' 28"
Sunlit
Object is in full shadow
Visualization observer readout
Local Sidereal Time14:01:00
Azimuth338.909° N
Elevation-28.224°
Doppler factor1
Orbital elements
Apogee altitude523.654 km
Perigee altitude508.372 km
Semi-major axis6,894.15 km
Eccentricity0.0011083
Inclination97.6096°
RAAN106.9536°
Arg. of periapsis252.4046°
True anomaly107.71861°
Mean anomaly107.5976°
Eccentric anomaly107.65811°
Mean motion3.7916 °/min
BSTAR0.00089673
Orbital period94.95 mins
Loading maneuver chart data...
Loading historical data...
Loading historical data...
Loading historical data...
Loading historical data...
Loading historical data...
Loading historical data...
Loading historical data...

OBJECT F Visibility forecast

Observer location: undefined°, undefined

Span
Click to sort rows by Start time (UTC) header in descending order
Start Az.
Max El. time (UTC)
Max El. Az.
Max El.
End time (UTC)
End Az.
6 mins2024-12-21 19:59:47.237Z32.508° NE2024-12-21 20:02:47.237Z90.562° ESE29.694°2024-12-21 20:05:47.237Z160.267° S
5 mins2024-12-22 08:14:47.237Z214.764° SW2024-12-22 08:16:47.237Z266.766° W27.46°2024-12-22 08:19:47.237Z324.629° NNW
|